Volver al catálogo

COSMOS 839 DEB

ActivoUNKNOWN
NORAD 13515·DEBRIS·🇷🇺 Russia

Lanzado Jul 8, 1976 desde Plesetsk Cosmodrome

Loading…

Próximos Pases (próximas 24 horas)

TLE

ActualizadoSource: Space-Track

Época: Sep 13, 2026, 22:19 UTC

1 13515U 76067BC  26256.92994822  .00000298  00000-0  12267-2 0  9996
2 13515  65.8989 204.0363 0646350  85.7121 339.4572 12.42475649 91263

Sigue COSMOS 839 DEB en tiempo real con AllMySat

Download on the App Store